Regional Weather Roundup
Issued by NWS

Home | Current Version | Previous Version | Text Only | Print | Product List | Glossary Off
Versions: 1 2 3 4 5 6 7 8 9 10 11 12 13 14 15 16 17 18 19 20 21 22 23 24 25 26 27 28 29 30 31 32 33 34 35 36 37 38 39 40 41 42 43 44 45 46 47 48 49 50

000
ASUS45 KPSR 260500
RWRAZ

ARIZONA REGIONAL HOURLY WEATHER ROUNDUP
NATIONAL WEATHER SERVICE PHOENIX AZ
1000 PM MST SAT APR 25 2015

NOTE: FAIR INDICATES FEW OR NO CLOUDS BELOW 12,000 FEET WITH NO
SIGNIFICANT WEATHER AND/OR OBSTRUCTIONS TO VISIBILITY.

AZZ001>003-036-260600-
NORTHWEST ARIZONA

CITY           SKY/WX    TMP DP  RH WIND       PRES   REMARKS
KINGMAN        CLOUDY    46  44  93 N12       29.78R
$$

AZZ004>008-015-016-018-260600-
NORTH CENTRAL ARIZONA

CITY           SKY/WX    TMP DP  RH WIND       PRES   REMARKS
GRAND CANYON   CLOUDY    38  37  97 SW8       29.80S WCI  32
WILLIAMS       LGT SNOW  32  32 100 CALM      29.89F VSB 1
PRESCOTT       RAIN      42  37  82 W9        29.82R
FLAGSTAFF      NOT AVBL
PAYSON         LGT RAIN  45  41  87 S8        29.85S
PAGE           CLOUDY    49  39  68 NW6       29.76R
$$

AZZ009>014-017-260600-
NORTHEAST ARIZONA

CITY           SKY/WX    TMP DP  RH WIND       PRES   REMARKS
WINSLOW        NOT AVBL
SAINT JOHNS    CLOUDY    49  34  56 SW28G36   29.84R
WINDOW ROCK    LGT RAIN  41  36  82 SW10      29.87R
SHOW LOW       LGT RAIN  39  36  87 SW18G24   29.88S WCI  30
$$

AZZ023-260600-
GREATER PHOENIX AREA

CITY           SKY/WX    TMP DP  RH WIND       PRES   REMARKS
PHOENIX        CLOUDY    69  41  36 W14       29.74R
LUKE AFB       CLOUDY    68  43  40 SW17      29.74R
DEER VALLEY    CLOUDY    65  41  41 SW13      29.74S
SCOTTSDALE     CLOUDY    66  40  38 SW8       29.77S
MESA-GATEWAY   LGT RAIN  66  41  39 NW13      29.77R
$$

AZZ027-028-260600-
SOUTHWEST MARICOPA COUNTY AND PINAL COUNTY

CITY           SKY/WX    TMP DP  RH WIND       PRES   REMARKS
CASA GRANDE    CLOUDY    61  46  59 W17G29    29.79R
$$

AZZ503-504-507>509-260600-
SOUTHEAST ARIZONA

CITY           SKY/WX    TMP DP  RH WIND       PRES   REMARKS
TUCSON         CLOUDY    69  31  24 SW13      29.83R
NOGALES        CLOUDY    59  32  36 S9        29.89R
SAFFORD        CLOUDY    67  34  29 NW23G29   29.76R
$$

AZZ020-021-025-026-031-260600-
SOUTHWEST ARIZONA

CITY           SKY/WX    TMP DP  RH WIND       PRES   REMARKS
YUMA           PTCLDY    66  48  52 W13G23    29.81R
$$

CAZ031-033-041-043-047-048-061-260600-
SOUTHERN CALIFORNIA

CITY           SKY/WX    TMP DP  RH WIND       PRES   REMARKS
DOWNTOWN L.A.  CLEAR     59  50  72 CALM      29.89R
L.A. AIRPORT   PTCLDY    58  50  75 W13       29.90R
SAN DIEGO      MOCLDY    61  51  70 NW9G21    29.98R
BURBANK        CLEAR     57  49  74 W7        29.88R
ONTARIO        MOCLDY    55  51  86 CALM      29.90R
RIVERSIDE      CLOUDY    57  51  80 VRB3      29.91R
PALM SPRINGS   CLEAR     71  35  26 NW18G32   29.79F
EL CENTRO NAS  PTCLDY    66  47  50 W12       29.84R
IMPERIAL       CLOUDY    64  50  60 W10       29.80S
BLYTHE         MOCLDY    67  45  45 W21       29.76R
$$

NVZ020-UTZ003-260600-
SOUTHERN NEVADA-UTAH

CITY           SKY/WX    TMP DP  RH WIND       PRES   REMARKS
LAS VEGAS      NOT AVBL
SALT LAKE CITY LGT RAIN  44  42  93 W9        29.73R
$$

NMZ009-TXZ055-260600-
NEW MEXICO-WEST TEXAS

CITY           SKY/WX    TMP DP  RH WIND       PRES   REMARKS
ALBUQUERQUE    MOCLDY    62  29  28 S7        29.80S
EL PASO        PTCLDY    69  21  16 SW16      29.81S
$$


........................KEY........................
SKY/WX - SKY CONDITION/WEATHER
TMP    - TEMPERATURE IN FAHRENHEIT
DP     - DEW POINT IN FAHRENHEIT
RH     - RELATIVE HUMIDITY IN PERCENT
WIND   - DIRECTION AND SPEED IN MILES PER HOUR (MPH)
VRB    - VARIABLE WIND DIRECTION
PRES   - MEAN SEA LEVEL PRESSURE IN INCHES OF MERCURY
         F - FALLING PRESSURE   R - RISING PRESSURE
         S - STEADY PRESSURE
VSB    - VISIBILITY IN MILES
HX     - HEAT INDEX IN FAHRENHEIT
WCI    - WIND CHILL INDEX IN FAHRENHEIT
TC     - TEMPERATURE IN CELSIUS WHICH IS ALSO KNOWN AS
         TEMPERATURE IN CENTIGRADE
AFB    - AIR FORCE BASE
         LUKE AFB IS LUKE AIR FORCE BASE
         DAVIS-MONTHAN IS DAVIS-MONTHAN AIR FORCE BASE
NAS    - NAVAL AIR STATION
         EL CENTRO NAS IS EL CENTRO NAVAL AIR STATION
N/A    - NOT AVAILABLE



USA.gov is the U.S. government's official web portal to all federal, state and local government web resources and services.